CW5466 Weather Reports


time (UTC)temp
F
wind
direction
speed
knots
gust
knots
rain 1hr
in
rain 24hr
in
rain mn
in
humidity
%
barometer
mb
20260505070040 56 13 10.4 15.6 0.00 0.00 0.00 42 1008.6
20260505064547 56 34 11.3 18.2 0.00 0.00 0.00 41 1008.9
20260505063049 56 18 12.2 20.0 0.00 0.00 0.00 40 1008.4
20260505061545 57 40 13.9 20.0 0.00 0.00 0.00 39 1008.4
20260505060046 57 26 14.8 20.9 0.00 0.00 0.00 39 1007.6
20260505054548 57 23 13.9 18.2 0.00 0.00 0.00 40 1007.0
20260505053048 57 39 12.2 21.7 0.00 0.00 0.00 40 1007.1
20260505051552 57 46 15.6 20.9 0.00 0.00 0.00 40 1007.0
20260505041540 60 31 15.6 24.3 0.00 0.00 0.00 38 1006.2
20260505040049 62 34 18.2 25.2 0.00 0.00 0.00 36 1006.0
20260505034546 64 14 18.2 25.2 0.00 0.00 0.00 35 1005.9
20260505033041 66 41 14.8 21.7 0.00 0.00 0.00 35 1005.6
20260505031547 67 24 15.6 20.9 0.00 0.00 0.00 34 1005.4
20260505030042 68 334 12.2 17.4 0.00 0.00 0.00 33 1005.2
20260505024544 69 23 13.9 21.7 0.00 0.00 0.00 31 1004.6
20260505023052 69 24 13.9 20.0 0.00 0.00 0.00 31 1004.2
20260505021545 71 42 12.2 20.9 0.00 0.00 0.00 31 1003.6
20260505020040 72 26 12.2 17.4 0.00 0.00 0.00 31 1002.9
20260505014542 73 343 13.9 23.5 0.00 0.00 0.00 31 1002.1
20260505013039 74 36 14.8 25.2 0.00 0.00 0.00 30 1001.8
20260505011548 76 332 15.6 23.5 0.00 0.00 0.00 31 1001.6
20260505010107 77 30 14.8 20.9 0.00 0.00 0.00 32 1001.4
20260505004544 78 336 7.8 12.2 0.00 0.00 0.00 31 1001.1
20260505003045 80 286 0.9 1.7 0.00 0.00 0.00 25 1000.6
20260505001541 81 0 0.0 2.6 0.00 0.00 0.00 25 1000.5
20260505000047 81 291 1.7 4.3 0.00 0.00 0.00 25 1000.7
20260504234544 81 254 2.6 6.1 0.00 0.00 0.00 22 1000.7
20260504233042 83 284 2.6 6.1 0.00 0.00 0.00 22 1000.8
20260504231547 84 292 6.1 8.7 0.00 0.00 0.00 21 1000.6
20260504230047 84 279 6.1 11.3 0.00 0.00 0.00 22 1000.6
20260504224540 84 308 6.1 14.8 0.00 0.00 0.00 22 1000.5
20260504223047 84 300 3.5 10.4 0.00 0.00 0.00 21 1000.5
20260504221558 83 295 4.3 9.6 0.00 0.00 0.00 20 1000.5
20260504220046 84 286 3.5 10.4 0.00 0.00 0.00 19 1000.5
20260504214538 83 290 8.7 11.3 0.00 0.00 0.00 20 1000.6
20260504213057 83 269 7.0 13.0 0.00 0.00 0.00 21 1000.6
20260504211546 85 166 8.7 16.5 0.00 0.00 0.00 24 1000.8
20260504210042 85 262 8.7 15.6 0.00 0.00 0.00 21 1000.8
20260504204542 85 297 14.8 19.1 0.00 0.00 0.00 19 1000.9
20260504203051 85 291 3.5 15.6 0.00 0.00 0.00 25 1000.9
20260504201543 85 304 11.3 17.4 0.00 0.00 0.00 24 1001.1
20260504200042 85 309 11.3 15.6 0.00 0.00 0.00 24 1001.0
20260504194544 85 311 13.9 18.2 0.00 0.00 0.00 24 1001.0
20260504193041 85 303 7.8 15.6 0.00 0.00 0.00 26 1001.1
20260504191546 84 305 5.2 13.0 0.00 0.00 0.00 27 1001.1
20260504190047 83 299 4.3 17.4 0.00 0.00 0.00 27 1001.0
20260504184546 84 296 3.5 10.4 0.00 0.00 0.00 32 1001.1
20260504183044 84 295 4.3 13.0 0.00 0.00 0.00 29 1001.1
20260504181543 83 322 6.1 11.3 0.00 0.00 0.00 26 1001.3
20260504180047 83 20 8.7 11.3 0.00 0.00 0.00 28 1001.3
20260504174547 83 273 2.6 13.9 0.00 0.00 0.00 30 1001.4
20260504173042 82 277 6.1 9.6 0.00 0.00 0.00 33 1001.5
20260504171544 81 160 1.7 9.6 0.00 0.00 0.00 37 1001.6
20260504081551 56 126 1.7 2.6 0.00 0.00 0.00 63 1004.3